K1TTT Weather Reports


Display with metric or nautical units.
time (UTC)temp
F
wind
direction
speed
MPH
gust
MPH
rain 1hr
in
rain 24hr
in
rain mn
in
humidity
%
barometer
mb
20190922211605 77 213 1.0 12.0 0.00 0.00 0.00 62 1015.8
20190922211101 77 198 4.0 12.0 0.00 0.00 0.00 63 1015.8
20190922210609 77 203 2.0 11.0 0.00 0.00 0.00 62 1015.8
20190922210059 77 200 1.0 9.0 0.00 0.00 0.00 63 1015.9
20190922205104 77 167 4.0 13.0 0.00 0.00 0.00 61 1015.9
20190922204534 77 227 9.0 13.0 0.00 0.00 0.00 60 1015.8
20190922204112 77 232 7.0 11.0 0.00 0.00 0.00 60 1015.8
20190922203610 77 185 1.0 10.0 0.00 0.00 0.00 60 1015.8
20190922203041 77 240 0.0 9.0 0.00 0.00 0.00 61 1015.9
20190922202553 77 216 1.0 13.0 0.00 0.00 0.00 60 1015.9
20190922202045 77 252 6.0 13.0 0.00 0.00 0.00 59 1015.9
20190922201537 77 206 4.0 11.0 0.00 0.00 0.00 59 1016.1
20190922201052 77 181 5.0 11.0 0.00 0.00 0.00 59 1016.1
20190922200602 77 212 3.0 12.0 0.00 0.00 0.00 59 1016.1
20190922200057 77 206 1.0 12.0 0.00 0.00 0.00 58 1015.9
20190922195547 77 208 6.0 12.0 0.00 0.00 0.00 58 1015.9
20190922195040 77 184 6.0 12.0 0.00 0.00 0.00 57 1015.9
20190922194554 78 172 7.0 12.0 0.00 0.00 0.00 58 1016.5
20190922194111 77 193 2.0 15.0 0.00 0.00 0.00 59 1016.5
20190922193608 77 229 6.0 15.0 0.00 0.00 0.00 58 1016.5
20190922193041 78 242 2.0 15.0 0.00 0.00 0.00 58 1016.4
20190922192533 77 216 0.0 13.0 0.00 0.00 0.00 59 1016.4
20190922192046 78 167 7.0 13.0 0.00 0.00 0.00 58 1016.4
20190922191541 78 235 5.0 11.0 0.00 0.00 0.00 57 1016.9
20190922191040 78 221 1.0 10.0 0.00 0.00 0.00 58 1016.9
20190922190625 77 271 1.0 11.0 0.00 0.00 0.00 59 1016.9
20190922190038 77 199 6.0 11.0 0.00 0.00 0.00 57 1017.0
20190922185533 77 158 2.0 11.0 0.00 0.00 0.00 59 1017.0
20190922185048 77 274 1.0 15.0 0.00 0.00 0.00 60 1017.0
20190922184545 77 249 5.0 15.0 0.00 0.00 0.00 58 1017.3
20190922184103 77 153 6.0 15.0 0.00 0.00 0.00 58 1017.3
20190922183557 77 205 1.0 13.0 0.00 0.00 0.00 60 1017.3
20190922183051 77 221 5.0 13.0 0.00 0.00 0.00 59 1017.4
20190922182545 77 227 7.0 13.0 0.00 0.00 0.00 60 1017.4
20190922182104 77 255 2.0 13.0 0.00 0.00 0.00 59 1017.4
20190922181603 77 256 4.0 12.0 0.00 0.00 0.00 58 1017.5
20190922181057 77 179 0.0 10.0 0.00 0.00 0.00 59 1017.5
20190922180605 77 171 3.0 11.0 0.00 0.00 0.00 59 1017.5
20190922180103 76 217 0.0 11.0 0.00 0.00 0.00 58 1017.6
20190922175535 77 197 0.0 16.0 0.00 0.00 0.00 58 1017.6
20190922175047 77 233 2.0 16.0 0.00 0.00 0.00 57 1017.6
20190922174557 77 217 5.0 14.0 0.00 0.00 0.00 57 1017.9
20190922174049 77 248 9.0 14.0 0.00 0.00 0.00 57 1017.9
20190922173543 77 291 3.0 12.0 0.00 0.00 0.00 56 1017.9
20190922173039 77 248 1.0 17.0 0.00 0.00 0.00 57 1018.0
20190922172551 77 356 8.0 17.0 0.00 0.00 0.00 55 1018.0
20190922172045 77 278 4.0 14.0 0.00 0.00 0.00 56 1018.0
20190922171539 77 213 3.0 12.0 0.00 0.00 0.00 53 1018.0
20190922171051 77 204 4.0 10.0 0.00 0.00 0.00 52 1018.0
20190922170603 77 217 3.0 10.0 0.00 0.00 0.00 55 1018.0
20190922170059 76 237 5.0 10.0 0.00 0.00 0.00 54 1018.1
20190922165551 77 229 1.0 11.0 0.00 0.00 0.00 54 1018.1
20190922165047 76 238 5.0 11.0 0.00 0.00 0.00 53 1018.1
20190922164602 76 257 5.0 12.0 0.00 0.00 0.00 53 1018.1
20190922164052 76 231 6.0 12.0 0.00 0.00 0.00 53 1018.1
20190922163609 76 240 3.0 9.0 0.00 0.00 0.00 55 1018.1
20190922163042 76 240 5.0 12.0 0.00 0.00 0.00 52 1018.4
20190922162555 75 236 2.0 12.0 0.00 0.00 0.00 52 1018.4
20190922162048 75 280 3.0 12.0 0.00 0.00 0.00 52 1018.4
20190922161544 75 308 4.0 10.0 0.00 0.00 0.00 52 1018.5
20190922161038 75 285 3.0 10.0 0.00 0.00 0.00 53 1018.5
20190922160609 75 283 4.0 12.0 0.00 0.00 0.00 51 1018.5
20190922160042 75 294 5.0 12.0 0.00 0.00 0.00 52 1018.7
20190922155535 75 226 3.0 12.0 0.00 0.00 0.00 52 1018.7
20190922155050 75 269 1.0 11.0 0.00 0.00 0.00 53 1018.7
20190922154544 75 278 5.0 11.0 0.00 0.00 0.00 51 1018.7
20190922154104 74 300 1.0 10.0 0.00 0.00 0.00 53 1018.7
20190922153538 74 237 6.0 10.0 0.00 0.00 0.00 52 1018.7
20190922153054 74 240 0.0 12.0 0.00 0.00 0.00 53 1018.8
20190922152548 74 229 2.0 12.0 0.00 0.00 0.00 55 1018.8
20190922152107 73 236 2.0 12.0 0.00 0.00 0.00 55 1018.8
20190922151540 73 269 4.0 11.0 0.00 0.00 0.00 53 1019.1
20190922151036 73 256 5.0 11.0 0.00 0.00 0.00 54 1019.1
20190922150606 73 257 5.0 11.0 0.00 0.00 0.00 53 1019.1
20190922150037 72 263 6.0 12.0 0.00 0.00 0.00 54 1019.3
20190922145551 72 244 6.0 12.0 0.00 0.00 0.00 53 1019.3
20190922145042 72 232 4.0 11.0 0.00 0.00 0.00 54 1019.3
20190922144535 72 262 4.0 13.0 0.00 0.00 0.00 55 1019.4
20190922144050 72 323 7.0 13.0 0.00 0.00 0.00 54 1019.4
20190922143543 71 238 4.0 10.0 0.00 0.00 0.00 55 1019.4
20190922143037 71 237 7.0 9.0 0.00 0.00 0.00 55 1019.5
20190922142549 71 239 0.0 9.0 0.00 0.00 0.00 59 1019.5
20190922142039 71 239 0.0 11.0 0.00 0.00 0.00 59 1019.5
20190922141552 71 240 4.0 11.0 0.00 0.00 0.00 57 1019.6
20190922141055 70 245 3.0 0.0 0.00 0.00 0.00 60 1019.6
20190922140604 70 249 3.0 0.0 0.00 0.00 0.00 57 1019.6
20190922140047 70 259 4.0 0.0 0.00 0.00 0.00 58 1019.6
20190922135546 69 238 4.0 0.0 0.00 0.00 0.00 58 1019.6
20190922135046 69 248 3.0 0.0 0.00 0.00 0.00 58 1019.6
20190922134608 69 254 2.0 0.0 0.00 0.00 0.00 62 1018.8
20190922134107 69 226 2.0 0.0 0.00 0.00 0.00 59 1018.8
20190922133545 69 236 2.0 0.0 0.00 0.00 0.00 61 1018.8
20190922133106 68 235 2.0 0.0 0.00 0.00 0.00 61 1018.9
20190922132607 68 292 0.0 0.0 0.00 0.00 0.00 63 1018.9
20190922132044 67 293 0.0 0.0 0.00 0.00 0.00 63 1018.9
20190922131545 67 293 0.0 0.0 0.00 0.00 0.00 64 1019.9
20190922131049 67 290 0.0 0.0 0.00 0.00 0.00 63 1019.9
20190922130559 67 290 0.0 0.0 0.00 0.00 0.00 66 1019.9
20190922130038 66 290 0.0 0.0 0.00 0.00 0.00 64 1020.0
20190922125558 66 290 0.0 0.0 0.00 0.00 0.00 65 1020.0
20190922125037 66 290 0.0 0.0 0.00 0.00 0.00 66 1020.0
20190922124556 65 290 0.0 0.0 0.00 0.00 0.00 67 1019.0
20190922124036 65 290 0.0 0.0 0.00 0.00 0.00 68 1019.0
20190922123534 65 290 0.0 0.0 0.00 0.00 0.00 67 1019.0
20190922123032 64 290 0.0 0.0 0.00 0.00 0.00 66 1019.1
20190922122533 64 290 0.0 0.0 0.00 0.00 0.00 67 1019.1
20190922122033 63 290 0.0 0.0 0.00 0.00 0.00 68 1019.1
20190922121533 62 290 0.0 0.0 0.00 0.00 0.00 69 1019.1
20190922121052 62 290 0.0 0.0 0.00 0.00 0.00 71 1019.1
20190922120601 61 290 0.0 0.0 0.00 0.00 0.00 72 1019.1
20190922120041 60 290 0.0 0.0 0.00 0.00 0.00 73 1019.1
20190922115542 60 290 0.0 0.0 0.00 0.00 0.00 75 1019.1
20190922115103 59 290 0.0 0.0 0.00 0.00 0.00 75 1019.1
20190922114541 59 290 0.0 0.0 0.00 0.00 0.00 77 1019.5
20190922114045 58 290 0.0 0.0 0.00 0.00 0.00 77 1019.5
20190922113607 57 290 0.0 0.0 0.00 0.00 0.00 78 1019.5
20190922113045 55 290 0.0 0.0 0.00 0.00 0.00 81 1019.7
20190922112606 54 290 0.0 0.0 0.00 0.00 0.00 86 1019.7
20190922112047 52 290 0.0 0.0 0.00 0.00 0.00 90 1019.7
20190922111546 51 290 0.0 0.0 0.00 0.00 0.00 93 1019.3
20190922111107 51 290 0.0 0.0 0.00 0.00 0.00 94 1019.3
20190922110555 51 290 0.0 0.0 0.00 0.00 0.00 94 1019.3
20190922110039 51 290 0.0 0.0 0.00 0.00 0.00 94 1019.4
20190922105559 51 290 0.0 0.0 0.00 0.00 0.00 94 1019.4
20190922105059 51 290 0.0 0.0 0.00 0.00 0.00 94 1019.4
20190922104536 51 290 0.0 0.0 0.00 0.00 0.00 93 1019.5
20190922104036 51 290 0.0 0.0 0.00 0.00 0.00 93 1019.5
20190922103537 51 290 0.0 0.0 0.00 0.00 0.00 92 1019.5
20190922103038 51 290 0.0 0.0 0.00 0.00 0.00 92 1019.5
20190922102536 52 290 0.0 0.0 0.00 0.00 0.00 92 1019.5
20190922102035 52 290 0.0 0.0 0.00 0.00 0.00 91 1019.5
20190922101536 52 290 0.0 0.0 0.00 0.00 0.00 90 1020.2
20190922101041 53 290 0.0 0.0 0.00 0.00 0.00 90 1020.2
20190922100613 53 290 0.0 0.0 0.00 0.00 0.00 89 1020.2
20190922100035 53 290 0.0 0.0 0.00 0.00 0.00 89 1020.2
20190922095534 53 290 0.0 0.0 0.00 0.00 0.00 89 1020.2
20190922095054 53 290 0.0 0.0 0.00 0.00 0.00 88 1020.2
20190922094533 54 290 0.0 0.0 0.00 0.00 0.00 87 1020.2
20190922094031 54 290 0.0 0.0 0.00 0.00 0.00 87 1020.2
20190922093531 53 290 0.0 0.0 0.00 0.00 0.00 88 1020.2
20190922093031 53 290 0.0 0.0 0.00 0.00 0.00 90 1020.2
20190922092530 53 290 0.0 0.0 0.00 0.00 0.00 91 1020.2
20190922092051 53 290 0.0 0.0 0.00 0.00 0.00 89 1020.2
20190922091529 54 290 0.0 0.0 0.00 0.00 0.00 88 1020.0
20190922091049 54 290 0.0 0.0 0.00 0.00 0.00 87 1020.0
20190922090600 54 290 0.0 0.0 0.00 0.00 0.00 86 1020.0
20190922090044 54 290 0.0 0.0 0.00 0.00 0.00 86 1020.1
20190922085542 54 290 0.0 0.0 0.00 0.00 0.00 87 1020.1
20190922085104 53 290 0.0 0.0 0.00 0.00 0.00 88 1020.1
20190922084605 53 290 0.0 0.0 0.00 0.00 0.00 91 1019.9
20190922084043 52 290 0.0 0.0 0.00 0.00 0.00 92 1019.9
20190922083546 52 290 0.0 0.0 0.00 0.00 0.00 92 1019.9
20190922083046 52 290 0.0 0.0 0.00 0.00 0.00 91 1019.7
20190922082547 52 290 0.0 0.0 0.00 0.00 0.00 90 1019.7
20190922082044 53 290 0.0 0.0 0.00 0.00 0.00 89 1019.7
20190922081544 53 290 0.0 0.0 0.00 0.00 0.00 88 1019.5
20190922081044 54 290 0.0 0.0 0.00 0.00 0.00 87 1019.5
20190922080554 54 290 0.0 0.0 0.00 0.00 0.00 85 1019.5
20190922080036 54 290 0.0 0.0 0.00 0.00 0.00 84 1019.9
20190922075556 54 290 0.0 0.0 0.00 0.00 0.00 83 1019.9
20190922075055 54 290 0.0 0.0 0.00 0.00 0.00 83 1019.9
20190922074554 54 290 0.0 0.0 0.00 0.00 0.00 84 1020.1
20190922074033 54 291 0.0 0.0 0.00 0.00 0.00 84 1020.1
20190922073554 54 290 0.0 0.0 0.00 0.00 0.00 84 1020.1
20190922073053 53 290 0.0 0.0 0.00 0.00 0.00 85 1020.1
20190922072532 53 290 0.0 0.0 0.00 0.00 0.00 86 1020.1
20190922072031 53 291 0.0 0.0 0.00 0.00 0.00 86 1020.1
20190922071531 53 290 0.0 0.0 0.00 0.00 0.00 85 1019.9
20190922071032 54 291 0.0 0.0 0.00 0.00 0.00 84 1019.9
20190922070623 54 291 0.0 0.0 0.00 0.00 0.00 83 1019.9
20190922070044 55 291 0.0 0.0 0.00 0.00 0.00 81 1020.0
20190922065547 55 291 0.0 0.0 0.00 0.00 0.00 80 1020.0
20190922065047 55 290 0.0 0.0 0.00 0.00 0.00 79 1020.0
20190922064547 55 290 0.0 0.0 0.00 0.00 0.00 79 1020.1
20190922064047 55 290 0.0 0.0 0.00 0.00 0.00 78 1020.1
20190922063546 55 290 0.0 0.0 0.00 0.00 0.00 77 1020.1
20190922063045 55 290 0.0 0.0 0.00 0.00 0.00 78 1020.3
20190922062545 55 290 0.0 0.0 0.00 0.00 0.00 78 1020.3
20190922062045 55 290 0.0 0.0 0.00 0.00 0.00 78 1020.3
20190922061545 55 290 0.0 0.0 0.00 0.00 0.00 77 1020.1
20190922061045 56 290 0.0 0.0 0.00 0.00 0.00 77 1020.1
20190922060615 56 290 0.0 0.0 0.00 0.00 0.00 74 1020.1
20190922060037 57 290 0.0 0.0 0.00 0.00 0.00 73 1020.3
20190922055557 57 290 0.0 0.0 0.00 0.00 0.00 72 1020.3
20190922055057 56 290 0.0 0.0 0.00 0.00 0.00 74 1020.3
20190922054536 56 290 0.0 0.0 0.00 0.00 0.00 73 1020.3
20190922054056 57 290 0.0 0.0 0.00 0.00 0.00 75 1020.3
20190922053554 58 290 0.0 0.0 0.00 0.00 0.00 73 1020.3
20190922053056 58 290 0.0 0.0 0.00 0.00 0.00 70 1020.4
20190922052533 59 290 0.0 0.0 0.00 0.00 0.00 67 1020.4
20190922052054 58 290 0.0 0.0 0.00 0.00 0.00 68 1020.4
20190922051553 58 290 0.0 0.0 0.00 0.00 0.00 68 1020.4
20190922051037 58 290 0.0 0.0 0.00 0.00 0.00 68 1020.4
20190922050546 58 290 0.0 0.0 0.00 0.00 0.00 68 1020.4
20190922050030 58 290 0.0 0.0 0.00 0.00 0.00 68 1020.3
20190922045548 58 290 0.0 0.0 0.00 0.00 0.00 69 1020.3
20190922045030 58 290 0.0 0.0 0.00 0.00 0.00 71 1020.3
20190922044529 57 290 0.0 0.0 0.00 0.00 0.00 72 1020.5
20190922044049 57 290 0.0 0.0 0.00 0.00 0.00 72 1020.5
20190922043549 57 290 0.0 0.0 0.00 0.00 0.00 73 1020.5
20190922043049 57 290 0.0 0.0 0.00 0.00 0.00 73 1020.4
20190922042609 57 290 0.0 0.0 0.00 0.00 0.00 75 1020.4
20190922042110 57 290 0.0 0.0 0.00 0.00 0.00 74 1020.4
20190922041529 57 290 0.0 0.0 0.00 0.00 0.00 73 1020.5
20190922041029 58 290 0.0 0.0 0.00 0.00 0.00 74 1020.5
20190922040601 58 290 0.0 0.0 0.00 0.00 0.00 73 1020.5
20190922040043 59 290 0.0 0.0 0.00 0.00 0.00 71 1020.8
20190922035545 59 290 0.0 0.0 0.00 0.00 0.00 72 1020.8
20190922035048 58 290 0.0 0.0 0.00 0.00 0.00 75 1020.8
20190922034548 58 290 0.0 0.0 0.00 0.00 0.00 76 1020.7
20190922034049 58 290 0.0 0.0 0.00 0.00 0.00 77 1020.7
20190922033549 58 290 0.0 0.0 0.00 0.00 0.00 77 1020.7
20190922033029 59 290 0.0 0.0 0.00 0.00 0.00 78 1020.5
20190922032531 59 290 0.0 0.0 0.00 0.00 0.00 78 1020.5
20190922032031 59 290 0.0 0.0 0.00 0.00 0.00 80 1020.5
20190922031551 58 290 0.0 0.0 0.00 0.00 0.00 82 1020.9
20190922031029 58 290 0.0 0.0 0.00 0.00 0.00 84 1020.9
20190922030601 57 290 0.0 0.0 0.00 0.00 0.00 86 1020.9
20190922030044 57 290 0.0 0.0 0.00 0.00 0.00 88 1021.0
20190922025545 57 290 0.0 0.0 0.00 0.00 0.00 88 1021.0
20190922025044 57 290 0.0 0.0 0.00 0.00 0.00 88 1021.0
20190922024543 57 290 0.0 0.0 0.00 0.00 0.00 88 1021.1
20190922024049 57 290 0.0 0.0 0.00 0.00 0.00 88 1021.1
20190922023548 57 290 0.0 0.0 0.00 0.00 0.00 88 1021.1
20190922023107 57 290 0.0 0.0 0.00 0.00 0.00 90 1021.1
20190922022605 57 290 0.0 0.0 0.00 0.00 0.00 91 1021.1
20190922022043 57 290 0.0 0.0 0.00 0.00 0.00 92 1021.1
20190922021542 57 290 0.0 0.0 0.00 0.00 0.00 93 1021.3
20190922021042 57 290 0.0 0.0 0.00 0.00 0.00 93 1021.3
20190922020553 57 290 0.0 0.0 0.00 0.00 0.00 93 1021.3
20190922020056 57 290 0.0 0.0 0.00 0.00 0.00 94 1021.2
20190922015536 57 290 0.0 0.0 0.00 0.00 0.00 94 1021.2
20190922015058 57 290 0.0 0.0 0.00 0.00 0.00 93 1021.2
20190922014537 57 290 0.0 0.0 0.00 0.00 0.00 92 1021.1
20190922014036 58 290 0.0 0.0 0.00 0.00 0.00 92 1021.1
20190922013535 58 290 0.0 0.0 0.00 0.00 0.00 91 1021.1
20190922013056 58 290 0.0 0.0 0.00 0.00 0.00 91 1021.0
20190922012536 58 290 0.0 0.0 0.00 0.00 0.00 92 1021.0
20190922012036 58 290 0.0 0.0 0.00 0.00 0.00 92 1021.0
20190922011536 58 290 0.0 0.0 0.00 0.00 0.00 90 1020.9
20190922011040 59 290 0.0 0.0 0.00 0.00 0.00 89 1020.9
20190922010550 60 290 0.0 0.0 0.00 0.00 0.00 87 1020.9
20190922010054 60 290 0.0 0.0 0.00 0.00 0.00 85 1020.8
20190922005554 61 290 0.0 0.0 0.00 0.00 0.00 84 1020.8
20190922005053 61 290 0.0 0.0 0.00 0.00 0.00 83 1020.8
20190922004535 61 290 0.0 0.0 0.00 0.00 0.00 83 1020.8
20190922004035 61 290 0.0 0.0 0.00 0.00 0.00 84 1020.8
20190922003535 61 290 0.0 0.0 0.00 0.00 0.00 84 1020.8
20190922003036 61 290 0.0 0.0 0.00 0.00 0.00 84 1020.6
20190922002535 62 290 0.0 0.0 0.00 0.00 0.00 83 1020.6
20190922002037 62 290 0.0 0.0 0.00 0.00 0.00 82 1020.6
20190922001537 62 290 0.0 0.0 0.00 0.00 0.00 83 1020.6
20190922001036 63 290 0.0 0.0 0.00 0.00 0.00 82 1020.6
20190922000627 63 290 0.0 0.0 0.00 0.00 0.00 82 1020.6
20190922000109 62 290 0.0 0.0 0.00 0.00 0.00 84 1020.7
20190921235609 63 290 0.0 0.0 0.00 0.00 0.00 84 1020.7
20190921235047 63 290 0.0 0.0 0.00 0.00 0.00 85 1020.7
20190921234605 63 290 0.0 0.0 0.00 0.00 0.00 84 1020.6
20190921234041 63 290 0.0 0.0 0.00 0.00 0.00 84 1020.6
20190921233601 63 290 0.0 0.0 0.00 0.00 0.00 84 1020.6
20190921233039 64 290 0.0 0.0 0.00 0.00 0.00 83 1020.5
20190921232559 64 290 0.0 0.0 0.00 0.00 0.00 82 1020.5
20190921232057 65 290 0.0 0.0 0.00 0.00 0.00 81 1020.5
20190921231534 66 290 0.0 0.0 0.00 0.00 0.00 80 1020.5
20190921231037 66 290 0.0 0.0 0.00 0.00 0.00 78 1020.5
20190921230548 67 290 0.0 0.0 0.00 0.00 0.00 77 1020.5
20190921230031 67 290 0.0 0.0 0.00 0.00 0.00 76 1020.4
20190921225530 68 290 0.0 0.0 0.00 0.00 0.00 74 1020.4
20190921225110 68 290 0.0 0.0 0.00 0.00 0.00 73 1020.4
20190921224549 69 290 0.0 0.0 0.00 0.00 0.00 72 1020.3
20190921224046 69 290 0.0 0.0 0.00 0.00 0.00 72 1020.3
20190921223545 70 290 0.0 0.0 0.00 0.00 0.00 70 1020.3
20190921223044 71 290 0.0 0.0 0.00 0.00 0.00 69 1020.3
20190921222544 71 290 0.0 0.0 0.00 0.00 0.00 66 1020.3
20190921222042 72 290 0.0 0.0 0.00 0.00 0.00 65 1020.3
20190921221538 72 290 1.0 0.0 0.00 0.00 0.00 62 1020.3
20190921221057 73 290 0.0 0.0 0.00 0.00 0.00 58 1020.3
20190921220606 73 290 1.0 0.0 0.00 0.00 0.00 56 1020.3
20190921220048 73 290 1.0 0.0 0.00 0.00 0.00 55 1020.2
20190921215546 74 291 1.0 0.0 0.00 0.00 0.00 54 1020.2
20190921215042 74 294 1.0 0.0 0.00 0.00 0.00 53 1020.2
20190921214602 74 295 1.0 0.0 0.00 0.00 0.00 52 1020.1
20190921214044 75 295 0.0 0.0 0.00 0.00 0.00 51 1020.1
20190921213603 75 297 0.0 0.0 0.00 0.00 0.00 50 1020.1
20190921213037 75 298 0.0 0.0 0.00 0.00 0.00 51 1020.1
20190921212534 75 298 2.0 0.0 0.00 0.00 0.00 49 1020.1
20190921212112 75 298 2.0 0.0 0.00 0.00 0.00 48 1020.1